Weather History for Lakehurst NAS, NJ

Change the Weather History Date:

Thursday, February 7, 2013

  Actual Average Record
Temperature  
Mean Temperature 26 °F -  
Max Temperature 36 °F 43 °F 45 °F (1997)
Min Temperature 17 °F 29 °F 14 °F (2014)
Degree Days  
Heating Degree Days 39    
Moisture  
Dew Point 17 °F    
Average Humidity 63    
Maximum Humidity 88    
Minimum Humidity 48    
Precipitation  
Precipitation 0.00 in - - ()
Sea Level Pressure  
Sea Level Pressure 30.41 in    
Wind  
Wind Speed 3 mph (NE)    
Max Wind Speed 12 mph    
Max Gust Speed -    
Averages and records for this station are not official NWS values.
T = Trace of Precipitation, MM = Missing Value Source: NWS Daily Summary

Daily Weather History Graph

Daily Weather History Graph

Search for Another Location

Airport:

Trip Planner

Search our weather history database for the weather conditions in past years. The results will help you decide how hot, cold, wet, or windy it might be!

Date:

Astronomy

Feb. 07, 2013 Rise Set
Actual Time 6:59 AM EST 5:24 PM EST
Civil Twilight 6:31 AM EST 5:52 PM EST
Nautical Twilight 5:59 AM EST 6:24 PM EST
Astronomical Twilight 5:27 AM EST 6:56 PM EST
Moon 4:36 AM EST (2/7) 2:45 PM EST (2/7)
Length of Visible Light 11h 20m
Length of Day
10h 24m
Waning Crescent, 9% of the Moon is Illuminated
Feb 7
Waning Crescent
Feb 10
New
Feb 17
First Quarter
Feb 25
Full
Mar 4
Last Quarter

Hourly Weather History & Observations

Time (EST) Temp. Windchill Dew Point Humidity Pressure Visibility Wind Dir Wind Speed Gust Speed Precip Events Conditions
12:00 AM 19.9 °F - 16.0 °F 85% 30.36 in - Calm Calm - N/A   Clear
1:22 AM - - - N/A% - - North - - N/A   Unknown
2:00 AM 19.9 °F - 16.0 °F 85% 30.37 in - Calm Calm - N/A   Clear
3:00 AM 17.1 °F - 12.9 °F 84% 30.39 in - Calm Calm - N/A   Clear
4:00 AM 19.0 °F 13.9 °F 16.0 °F 88% 30.42 in - NW 3.5 mph - N/A   Clear
5:00 AM 19.0 °F - 12.9 °F 77% 30.42 in - Calm Calm - N/A   Clear
6:00 AM 23.0 °F 18.4 °F 12.9 °F 65% 30.42 in - North 3.5 mph - N/A   Clear
7:00 AM 24.1 °F 19.7 °F 12.0 °F 60% 30.45 in - North 3.5 mph - N/A   Clear
8:00 AM 26.1 °F 20.5 °F 10.9 °F 53% 30.48 in - North 4.6 mph - N/A   Clear
8:11 AM - - - N/A% - - North - - N/A   Unknown
9:00 AM 28.0 °F 24.2 °F 12.0 °F 51% 30.48 in - Variable 3.5 mph - N/A   Clear
11:00 AM 33.1 °F 28.7 °F 15.1 °F 48% 30.48 in - ENE 4.6 mph - N/A   Clear
12:00 PM 35.1 °F 28.6 °F 18.0 °F 50% 30.47 in - ESE 8.1 mph - N/A   Clear
1:00 PM 34.0 °F 26.6 °F 18.0 °F 52% 30.45 in - SE 9.2 mph - N/A   Clear
2:00 PM 33.1 °F 25.5 °F 19.0 °F 56% 30.42 in - East 9.2 mph - N/A   Clear
3:00 PM 32.0 °F 23.0 °F 18.0 °F 56% 30.41 in - East 11.5 mph - N/A   Mostly Cloudy
4:00 PM 32.0 °F 23.0 °F 18.0 °F 56% 30.40 in - East 11.5 mph - N/A   Partly Cloudy
5:00 PM 32.0 °F 24.2 °F 17.1 °F 54% 30.39 in - East 9.2 mph - N/A   Mostly Cloudy
6:00 PM 32.0 °F 25.6 °F 18.0 °F 56% 30.38 in - ENE 6.9 mph - N/A   Mostly Cloudy
7:00 PM 30.9 °F - 18.0 °F 59% 30.39 in - Calm Calm - N/A   Mostly Cloudy
8:00 PM 30.9 °F 27.5 °F 19.0 °F 61% 30.37 in - NE 3.5 mph - N/A   Overcast
9:00 PM 33.1 °F 30.0 °F 21.0 °F 61% 30.37 in - NE 3.5 mph - N/A   Overcast
10:00 PM 34.0 °F 29.8 °F 24.1 °F 67% 30.34 in - NE 4.6 mph - N/A   Overcast
11:00 PM 35.1 °F 31.0 °F 27.0 °F 72% 30.30 in - NE 4.6 mph - N/A   Overcast